Location: Anne Acres
(38.7004°N, 75.0827°W)
Time: 08:34:14
(UTC+00:00)

Transit 2A - Visible Passes

Search period start: 10 December 2025 00:00
Search period end: 20 December 2025 00:00
Orbit: 590 x 955 km, 66.7° (Epoch: 09 December)

Date Brightness Start Highest point End Pass type
(mag) Time Alt. Az. Time Alt. Az. Time Alt. Az.
10 Dec 7.1 09:41:46 10° S 09:46:46 46° ESE 09:52:18 10° NE visible
10 Dec 7.1 11:25:28 10° WSW 11:30:05 27° NW 11:35:07 10° N visible
11 Dec 7.8 09:07:34 17° SSE 09:10:42 30° ESE 09:15:39 10° NE visible
11 Dec 6.6 10:48:33 10° WSW 10:53:35 39° NW 10:59:08 10° NNE visible
12 Dec 8.4 08:34:45 19° ESE 08:34:45 19° ESE 08:38:39 10° ENE visible
12 Dec 6.2 10:15:13 37° WSW 10:17:11 57° WNW 10:23:02 10° NNE visible
13 Dec 6.2 09:41:31 71° NNE 09:41:31 71° NNE 09:46:49 10° NNE visible
13 Dec 7.7 11:21:57 11° WNW 11:24:58 16° NW 11:28:34 10° N visible
14 Dec 7.6 09:07:23 31° NE 09:07:23 31° NE 09:10:28 10° NE visible
14 Dec 7.3 10:47:48 22° NW 10:48:18 22° NW 10:52:52 10° N visible
15 Dec 8.7 08:32:58 15° NE 08:32:58 15° NE 08:33:58 10° NE visible
15 Dec 7.4 10:13:22 26° NNW 10:13:22 26° NNW 10:16:59 10° N visible
16 Dec 7.9 09:38:45 22° N 09:38:45 22° N 09:40:57 10° NNE visible
17 Dec 8.6 09:03:59 14° NNE 09:03:59 14° NNE 09:04:48 10° NNE visible
17 Dec 8.2 10:44:21 12° NNW 10:44:21 12° NNW 10:45:58 10° N visible
18 Dec 8.3 10:09:28 13° N 10:09:28 13° N 10:10:31 10° N visible
19 Dec 8.6 09:34:30 11° N 09:34:30 11° N 09:34:45 10° N visible
